Change the Weather History Date:

Saturday, May 25, 2013

  Actual Average Record
Temperature  
Mean Temperature 50 °F -  
Max Temperature 55 °F 74 °F 92 °F (1964)
Min Temperature 45 °F 51 °F 29 °F (1956)
Degree Days  
Heating Degree Days 16    
Moisture  
Dew Point 40 °F    
Average Humidity 70    
Maximum Humidity 90    
Minimum Humidity 53    
Precipitation  
Precipitation 0.07 in - - ()
Sea Level Pressure  
Sea Level Pressure 29.97 in    
Wind  
Wind Speed 10 mph (NW)    
Max Wind Speed 18 mph    
Max Gust Speed 37 mph    
Visibility 10 miles    
Events Rain    
Averages and records for this station are not official NWS values.
T = Trace of Precipitation, MM = Missing Value Source: NWS Daily Summary

Daily Weather History Graph

Daily Weather History Graph

Search for Another Location

Airport or City:

Trip Planner

Search our weather history database for the weather conditions in past years. The results will help you decide how hot, cold, wet, or windy it might be!

Date:

Astronomy

May. 25, 2013 Rise Set
Actual Time 5:31 AM EDT 8:17 PM EDT
Civil Twilight 4:59 AM EDT 8:49 PM EDT
Nautical Twilight 4:18 AM EDT 9:30 PM EDT
Astronomical Twilight 3:32 AM EDT 10:16 PM EDT
Moon 9:02 PM EDT (5/25) 5:55 AM EDT (5/25)
Length of Visible Light 15h 50m
Length of Day
14h 45m
Full, 100% of the Moon is Illuminated
May 25
Full
May 31
Last Quarter
Jun 8
New
Jun 16
First Quarter
Jun 23
Full

Hourly Weather History & Observations

Time (EDT) Temp. Windchill Dew Point Humidity Pressure Visibility Wind Dir Wind Speed Gust Speed Precip Events Conditions
12:53 AM 46.0 °F 42.5 °F 39.0 °F 76% 29.97 in 10.0 mi NNW 6.9 mph - 0.00 in   Overcast
1:53 AM 46.0 °F 42.5 °F 39.9 °F 79% 29.95 in 10.0 mi Variable 6.9 mph - N/A   Overcast
2:53 AM 46.0 °F 41.9 °F 39.9 °F 79% 29.94 in 10.0 mi NW 8.1 mph 19.6 mph N/A   Overcast
3:53 AM 46.0 °F 42.5 °F 41.0 °F 83% 29.94 in 10.0 mi NW 6.9 mph - 0.00 in Rain Light Rain
4:13 AM 46.4 °F 42.9 °F 39.2 °F 76% 29.92 in 10.0 mi Variable 6.9 mph - 0.00 in Rain Light Rain
4:53 AM 45.0 °F 41.2 °F 41.0 °F 86% 29.94 in 10.0 mi NW 6.9 mph - 0.01 in Rain Light Rain
5:53 AM 45.0 °F 41.2 °F 42.1 °F 90% 29.94 in 10.0 mi NNW 6.9 mph - 0.03 in Rain Light Rain
6:53 AM 45.0 °F 41.8 °F 42.1 °F 90% 29.95 in 10.0 mi Variable 5.8 mph - 0.03 in Rain Light Rain
7:53 AM 46.9 °F - 42.1 °F 83% 29.95 in 10.0 mi NNW 6.9 mph - 0.00 in   Overcast
8:02 AM 46.4 °F 41.9 °F 42.8 °F 87% 29.93 in 10.0 mi NNW 9.2 mph - N/A   Overcast
8:45 AM 48.2 °F - 42.8 °F 82% 29.93 in 10.0 mi NNW 13.8 mph 20.7 mph N/A   Overcast
8:53 AM 48.9 °F - 42.1 °F 77% 29.95 in 10.0 mi NW 11.5 mph 20.7 mph N/A   Overcast
9:53 AM 48.9 °F - 39.9 °F 71% 29.95 in 10.0 mi NNW 13.8 mph 21.9 mph N/A   Overcast
10:53 AM 51.1 °F - 41.0 °F 68% 29.95 in 10.0 mi NW 10.4 mph 25.3 mph N/A   Overcast
11:53 AM 51.1 °F - 41.0 °F 68% 29.96 in 10.0 mi NW 13.8 mph 26.5 mph 0.00 in   Overcast
12:53 PM 51.1 °F - 41.0 °F 68% 29.96 in 10.0 mi NNW 16.1 mph 27.6 mph 0.00 in   Overcast
1:53 PM 53.1 °F - 39.9 °F 61% 29.95 in 10.0 mi NNW 15.0 mph 27.6 mph 0.00 in   Mostly Cloudy
2:53 PM 54.0 °F - 37.9 °F 55% 29.96 in 10.0 mi NW 18.4 mph 36.8 mph 0.00 in Rain Light Rain
3:53 PM 54.0 °F - 39.9 °F 59% 29.96 in 10.0 mi NNW 16.1 mph 25.3 mph 0.00 in Rain Light Rain
4:53 PM 54.0 °F - 37.9 °F 55% 29.97 in 10.0 mi NNW 11.5 mph 21.9 mph 0.00 in Rain Light Rain
5:53 PM 54.0 °F - 37.0 °F 53% 29.99 in 10.0 mi NNW 13.8 mph 23.0 mph 0.00 in   Overcast
6:53 PM 52.0 °F - 37.0 °F 57% 30.01 in 10.0 mi NW 12.7 mph 21.9 mph N/A   Overcast
7:53 PM 52.0 °F - 35.1 °F 53% 30.02 in 10.0 mi NW 8.1 mph 20.7 mph N/A   Overcast
8:53 PM 52.0 °F - 36.0 °F 54% 30.03 in 10.0 mi NW 11.5 mph 23.0 mph N/A   Overcast
9:53 PM 51.1 °F - 36.0 °F 56% 30.04 in 10.0 mi NW 17.3 mph 23.0 mph 0.00 in   Overcast
10:53 PM 48.9 °F - 37.9 °F 66% 30.04 in 10.0 mi NNW 15.0 mph 26.5 mph 0.00 in   Overcast
11:53 PM 48.0 °F - 37.9 °F 68% 30.03 in 10.0 mi NW 12.7 mph 21.9 mph 0.00 in   Overcast